Location: Avully
(45.9633°N, 6.0228°E)
Time: 02:20:47
(UTC+00:00)

NOSS 3-4 (C) - Pass Details

Date: 23 May 2024
Orbit: 814 x 1397 km, 63.4° (Epoch: 04 June)

Event Time Altitude Azimuth Distance (km) Brightness Sun altitude
Rises 00:34:13 0° 318° (NW) 3,798 7.0 -21.9°
Reaches altitude 10° 00:36:44 10° 315° (NW) 2,921 6.3 -21.8°
Maximum altitude 00:43:35 58° 238° (WSW) 1,369 4.0 -21.5°
Enters shadow 00:47:18 31° 175° (S) 2,020 4.6 -21.3°
